Weather History for Mineola, TX

Change the Weather History Date:

Sunday, February 23, 2014

  Actual Average (KTYR) Record (KTYR)
Temperature  
Mean Temperature 62 °F 52 °F  
Max Temperature 75 °F 63 °F 87 °F (1982)
Min Temperature 48 °F 42 °F 19 °F (1901)
Degree Days  
Heating Degree Days 2 13  
Month to date heating degree days 351  
Since 1 July heating degree days 1829  
Cooling Degree Days 0 0  
Month to date cooling degree days 0  
Year to date cooling degree days 4  
Growing Degree Days 12 (Base 50)    
Moisture  
Dew Point 52 °F    
Average Humidity 71    
Maximum Humidity 94    
Minimum Humidity 47    
Precipitation  
Precipitation 0.00 in 0.13 in 1.78 in (1985)
Month to date precipitation 3.08  
Year to date precipitation 6.14  
Snow  
Snow 0.00 in - - ()
Month to date snowfall  
Since 1 July snowfall  
Snow Depth -    
Sea Level Pressure  
Sea Level Pressure 29.98 in    
Wind  
Wind Speed 5 mph (WNW)    
Max Wind Speed 16 mph    
Max Gust Speed 22 mph    
Visibility 9 miles    
Events      
T = Trace of Precipitation, MM = Missing Value Source: NWS Daily Summary

Daily Weather History Graph

Daily Weather History Graph

Search for Another Location

Airport:

Trip Planner

Search our weather history database for the weather conditions in past years. The results will help you decide how hot, cold, wet, or windy it might be!

Date:

Astronomy

Feb. 23, 2014 Rise Set
Actual Time 6:56 AM CST 6:14 PM CST
Civil Twilight 6:31 AM CST 6:39 PM CST
Nautical Twilight 6:03 AM CST 7:08 PM CST
Astronomical Twilight 5:34 AM CST 7:36 PM CST
Moon 1:46 AM CST (2/23) 12:27 PM CST (2/23)
Length of Visible Light 12h 07m
Length of Day
11h 17m
Last Quarter, 38% of the Moon is Illuminated
Feb 23
Last Quarter
Mar 1
New
Mar 8
First Quarter
Mar 16
Full
Mar 23
Last Quarter

Hourly Weather History & Observations

Time (CST) Temp. Dew Point Humidity Pressure Visibility Wind Dir Wind Speed Gust Speed Precip Events Conditions
12:15 AM 59.0 °F 46.4 °F 63% 29.93 in 10.0 mi SSE 4.6 mph - N/A   Clear
12:35 AM 57.2 °F 46.4 °F 67% 29.93 in 10.0 mi SSE 5.8 mph - N/A   Clear
12:55 AM 57.2 °F 46.4 °F 67% 29.92 in 10.0 mi SSE 4.6 mph - N/A   Clear
1:15 AM 57.2 °F 46.4 °F 67% 29.93 in 10.0 mi SSE 5.8 mph - N/A   Clear
1:35 AM 57.2 °F 48.2 °F 72% 29.93 in 10.0 mi South 5.8 mph - N/A   Clear
1:55 AM 57.2 °F 48.2 °F 72% 29.93 in 10.0 mi Calm Calm - N/A   Clear
2:15 AM 55.4 °F 48.2 °F 77% 29.92 in 10.0 mi Calm Calm - N/A   Clear
2:35 AM 55.4 °F 48.2 °F 77% 29.91 in 10.0 mi SSE 3.5 mph - N/A   Clear
2:55 AM 55.4 °F 50.0 °F 82% 29.90 in 10.0 mi South 3.5 mph - N/A   Clear
3:15 AM 55.4 °F 51.8 °F 88% 29.91 in 10.0 mi Calm Calm - N/A   Partly Cloudy
3:35 AM 57.2 °F 51.8 °F 82% 29.90 in 10.0 mi Calm Calm - N/A   Mostly Cloudy
3:55 AM 57.2 °F 51.8 °F 82% 29.90 in 10.0 mi Calm Calm - N/A   Overcast
4:15 AM 57.2 °F 53.6 °F 88% 29.90 in 10.0 mi Calm Calm - N/A   Mostly Cloudy
4:35 AM 57.2 °F 53.6 °F 88% 29.90 in 10.0 mi Calm Calm - N/A   Partly Cloudy
4:55 AM 57.2 °F 53.6 °F 88% 29.91 in 10.0 mi Calm Calm - N/A   Clear
5:15 AM 57.2 °F 53.6 °F 88% 29.92 in 10.0 mi Calm Calm - N/A   Clear
5:35 AM 55.4 °F 51.8 °F 88% 29.93 in 9.0 mi Calm Calm - N/A   Clear
5:55 AM 55.4 °F 53.6 °F 94% 29.93 in 10.0 mi Calm Calm - N/A   Clear
6:15 AM 57.2 °F 53.6 °F 88% 29.94 in 10.0 mi Calm Calm - N/A   Clear
6:35 AM 57.2 °F 53.6 °F 88% 29.94 in 10.0 mi South 4.6 mph - N/A   Scattered Clouds
6:55 AM 57.2 °F 55.4 °F 94% 29.93 in 8.0 mi Calm Calm - N/A   Mostly Cloudy
7:15 AM 57.2 °F 55.4 °F 94% 29.94 in 7.0 mi Calm Calm - N/A   Clear
7:35 AM 57.2 °F 55.4 °F 94% 29.94 in 5.0 mi South 4.6 mph - N/A   Clear
7:55 AM 59.0 °F 57.2 °F 94% 29.94 in 5.0 mi Calm Calm - N/A   Clear
8:15 AM 60.8 °F 57.2 °F 88% 29.94 in 5.0 mi South 4.6 mph - N/A   Clear
8:35 AM 62.6 °F 57.2 °F 82% 29.95 in 5.0 mi South 8.1 mph - N/A   Clear
8:55 AM 62.6 °F 59.0 °F 88% 29.96 in 5.0 mi SSW 11.5 mph - N/A   Clear
9:15 AM 64.4 °F 59.0 °F 83% 29.96 in 6.0 mi SSW 10.4 mph 17.3 mph N/A   Haze
9:35 AM 66.2 °F 60.8 °F 83% 29.97 in 7.0 mi SSW 5.8 mph - N/A   Clear
9:55 AM 66.2 °F 60.8 °F 83% 29.97 in 6.0 mi SSW 8.1 mph - N/A   Haze
10:15 AM 66.2 °F 60.8 °F 83% 29.97 in 7.0 mi SSW 9.2 mph - N/A   Clear
10:35 AM 66.2 °F 60.8 °F 83% 29.97 in 8.0 mi SSW 9.2 mph - N/A   Clear
10:55 AM 68.0 °F 60.8 °F 78% 29.98 in 8.0 mi SSW 5.8 mph - N/A   Partly Cloudy
11:15 AM 69.8 °F 60.8 °F 73% 29.98 in 8.0 mi SW 4.6 mph - N/A   Clear
11:35 AM 71.6 °F 60.8 °F 69% 29.97 in 7.0 mi SW 6.9 mph - N/A   Partly Cloudy
11:55 AM 71.6 °F 59.0 °F 64% 29.97 in 8.0 mi SW 6.9 mph - N/A   Scattered Clouds
12:15 PM 71.6 °F 57.2 °F 60% 29.97 in 9.0 mi WNW 9.2 mph - N/A   Mostly Cloudy
12:35 PM 73.4 °F 57.2 °F 57% 29.97 in 8.0 mi West 8.1 mph - N/A   Scattered Clouds
12:55 PM 73.4 °F 55.4 °F 53% 29.97 in 8.0 mi WSW 9.2 mph - N/A   Partly Cloudy
1:15 PM 73.4 °F 57.2 °F 57% 29.96 in 9.0 mi NW 9.2 mph - N/A   Mostly Cloudy
1:35 PM 73.4 °F 57.2 °F 57% 29.96 in 9.0 mi NW 9.2 mph - N/A   Mostly Cloudy
1:55 PM 73.4 °F 57.2 °F 57% 29.96 in 9.0 mi NNW 5.8 mph - N/A   Overcast
2:15 PM 73.4 °F 55.4 °F 53% 29.96 in 9.0 mi West 6.9 mph - N/A   Mostly Cloudy
2:35 PM 73.4 °F 53.6 °F 50% 29.95 in 10.0 mi WNW 9.2 mph - N/A   Partly Cloudy
2:55 PM 73.4 °F 53.6 °F 50% 29.95 in 9.0 mi North 6.9 mph - N/A   Partly Cloudy
3:15 PM 73.4 °F 55.4 °F 53% 29.95 in 8.0 mi NNW 8.1 mph - N/A   Clear
3:35 PM 75.2 °F 53.6 °F 47% 29.95 in 9.0 mi NW 9.2 mph - N/A   Clear
3:55 PM 73.4 °F 53.6 °F 50% 29.96 in 10.0 mi NNW 12.7 mph - N/A   Clear
4:15 PM 73.4 °F 53.6 °F 50% 29.96 in 9.0 mi NW 9.2 mph 18.4 mph N/A   Clear
4:35 PM 73.4 °F 53.6 °F 50% 29.97 in 9.0 mi North 13.8 mph 17.3 mph N/A   Clear
4:55 PM 71.6 °F 53.6 °F 53% 29.98 in 8.0 mi North 15.0 mph 20.7 mph N/A   Clear
5:15 PM 68.0 °F 51.8 °F 56% 29.99 in 8.0 mi NNW 16.1 mph 21.9 mph N/A   Clear
5:35 PM 66.2 °F 51.8 °F 60% 30.00 in 9.0 mi NNW 15.0 mph - N/A   Clear
5:55 PM 66.2 °F 50.0 °F 56% 30.01 in 9.0 mi NNW 13.8 mph - N/A   Clear
6:15 PM 62.6 °F 46.4 °F 55% 30.02 in 10.0 mi NNW 13.8 mph 18.4 mph N/A   Clear
6:35 PM 60.8 °F 46.4 °F 59% 30.04 in 10.0 mi North 9.2 mph - N/A   Clear
6:55 PM 60.8 °F 44.6 °F 55% 30.05 in 10.0 mi North 11.5 mph - N/A   Clear
7:15 PM 59.0 °F 44.6 °F 59% 30.06 in 10.0 mi North 6.9 mph 17.3 mph N/A   Clear
7:35 PM 57.2 °F 44.6 °F 63% 30.07 in 10.0 mi North 6.9 mph - N/A   Clear
7:55 PM 57.2 °F 42.8 °F 59% 30.08 in 10.0 mi North 5.8 mph - N/A   Clear
8:15 PM 55.4 °F 42.8 °F 63% 30.08 in 10.0 mi North 8.1 mph - N/A   Clear
8:35 PM 55.4 °F 42.8 °F 63% 30.09 in 10.0 mi North 5.8 mph - N/A   Clear
8:55 PM 55.4 °F 42.8 °F 63% 30.09 in 10.0 mi North 6.9 mph - N/A   Clear
9:15 PM 53.6 °F 42.8 °F 67% 30.11 in 10.0 mi North 5.8 mph - N/A   Clear
9:35 PM 51.8 °F 42.8 °F 71% 30.11 in 10.0 mi North 5.8 mph - N/A   Clear
9:55 PM 51.8 °F 42.8 °F 71% 30.11 in 10.0 mi North 5.8 mph - N/A   Clear
10:15 PM 51.8 °F 42.8 °F 71% 30.11 in 10.0 mi North 4.6 mph - N/A   Clear
10:35 PM 51.8 °F 42.8 °F 71% 30.12 in 10.0 mi Calm Calm - N/A   Clear
10:55 PM 50.0 °F 42.8 °F 76% 30.12 in 9.0 mi NNE 3.5 mph - N/A   Clear
11:20 PM 50.0 °F 42.8 °F 76% 30.12 in 10.0 mi Calm Calm - N/A   Clear
11:35 PM 50.0 °F 42.8 °F 76% 30.12 in 10.0 mi NNE 3.5 mph - N/A   Clear
11:55 PM 48.2 °F 42.8 °F 82% 30.11 in 10.0 mi Calm Calm - N/A   Clear